GFSFLT2_con_mucape_057.txt.gz
CAPE
371 295 823 662 827 1174 1166 991 989 826 539 456 457 343 410 414 175 208 334 307 294 77 0 0 0 0 0 0 0 0 0 2
444 256 96 52 185 233 405 582 669 676 462 329 212 254 244 157 93 246 516 423 230 35 0 0 0 0 0 0 0 0 0 2
162 169 56 38 18 16 98 342 309 557 487 283 154 222 61 0 2 136 290 201 78 50 0 0 0 0 0 0 0 0 0 5
90 144 76 97 74 44 19 35 159 268 469 405 175 79 0 0 1 21 65 115 105 64 12 1 0 0 0 0 0 0 0 6
48 0 27 66 64 43 32 11 11 108 402 228 111 34 21 4 0 0 29 58 70 36 3 0 0 0 0 0 0 0 1 3
51 15 6 17 24 15 25 13 6 90 355 185 87 27 0 0 0 0 0 0 9 32 0 0 0 0 0 0 0 0 0 4
83 84 5 2 45 13 27 16 46 37 269 175 51 12 3 0 0 0 0 0 0 0 0 0 0 0 0 0 0 0 0 2
97 2 5 5 28 0 5 26 45 59 149 127 66 26 29 0 0 0 0 0 0 0 0 0 0 0 0 0 0 0 0 1
1 21 13 29 14 5 0 3 30 58 146 138 80 85 49 24 0 0 0 0 0 0 0 0 0 0 0 0 0 0 0 0
11 40 34 16 34 9 2 3 13 43 79 103 48 32 69 66 2 2 0 3 0 0 0 0 0 0 0 0 0 0 0 0
4 3 27 7 11 41 2 4 4 31 18 51 46 5 29 45 22 24 7 27 20 25 20 2 0 0 0 0 0 0 0 0
23 31 7 20 15 32 14 12 5 5 3 30 38 26 39 65 45 35 27 47 40 60 36 6 0 0 0 0 0 0 0 0
19 38 6 39 14 23 5 3 2 31 29 37 31 66 52 59 92 52 38 56 54 82 71 58 32 23 4 0 0 0 0 0
0 46 17 18 10 11 6 6 0 31 63 61 57 85 72 132 107 108 74 70 56 66 68 55 37 45 23 0 0 0 0 0
0 0 2 0 8 7 7 5 0 8 57 73 80 119 165 135 148 168 135 87 100 63 51 63 62 49 36 0 0 0 12 4
0 0 0 0 3 20 6 9 13 0 4 31 15 67 95 132 112 83 82 63 72 65 89 84 59 68 65 56 28 16 26 9
0 0 0 4 8 5 22 1 0 0 3 35 10 69 68 27 35 72 121 103 119 88 75 89 62 44 44 54 24 23 0 25
0 0 0 0 0 1 2 6 7 0 3 0 47 41 25 15 5 12 60 174 166 149 101 74 61 56 46 48 22 41 12 38
0 0 0 0 0 9 0 4 6 3 3 1 24 2 0 0 10 14 66 64 38 93 84 52 27 48 67 71 53 40 32 33
0 0 0 0 0 0 0 0 0 0 3 0 1 6 3 5 4 6 20 18 15 32 88 66 17 5 36 67 13 36 54 54

GFSFLT2_con_mucape_060.txt.gz
CAPE
823 595 300 513 738 1205 894 1232 1190 1072 1073 1084 1008 817 704 594 551 612 488 176 114 47 5 0 0 0 0 0 0 7 0 1
727 605 360 229 110 369 588 683 894 851 964 892 612 587 521 260 226 410 405 191 65 72 0 0 0 0 0 0 0 0 2 1
831 427 314 181 146 181 639 792 669 616 861 640 546 513 268 96 83 299 326 89 54 72 0 0 0 0 0 0 0 0 7 4
396 196 218 126 95 117 141 318 408 524 589 747 423 533 233 8 187 285 181 96 98 59 0 0 0 0 0 0 0 3 11 9
166 196 72 119 97 62 95 66 67 100 168 421 473 372 130 87 285 305 220 47 11 0 0 0 0 0 0 0 0 1 13 7
55 151 28 68 87 10 30 52 83 82 65 166 282 133 151 137 168 159 125 62 53 6 1 8 0 0 0 0 0 0 8 9
51 28 27 0 19 38 43 26 51 74 42 154 252 191 139 53 82 106 125 171 155 51 34 21 0 0 0 0 0 0 3 6
41 86 89 3 35 71 71 6 8 14 60 223 247 175 133 54 40 1 11 90 122 40 22 19 0 0 0 0 0 0 1 5
29 45 2 1 6 8 3 2 9 13 66 230 211 156 145 90 27 20 5 17 13 8 8 9 3 1 0 0 0 0 0 0
5 0 20 1 3 4 0 3 14 84 118 181 155 136 117 89 40 29 8 0 0 5 3 9 3 0 0 0 0 0 0 0
1 0 13 10 13 1 0 4 40 53 101 140 135 101 106 82 50 97 50 0 0 0 0 0 0 0 0 0 0 0 0 0
5 1 25 17 12 19 2 8 5 8 43 171 121 90 108 76 58 118 84 28 22 10 0 0 0 0 0 0 0 0 0 0
2 23 7 22 17 19 9 2 0 0 40 69 131 108 142 138 119 132 108 99 94 76 32 17 0 0 0 0 0 0 0 0
1 10 32 7 53 3 2 9 4 0 30 40 108 150 132 134 150 119 106 147 156 130 94 71 29 15 10 13 6 0 2 0
26 2 4 10 12 1 4 2 1 0 6 0 56 153 198 118 139 174 167 153 196 207 169 160 133 63 54 130 151 105 106 0
22 0 32 0 0 0 4 0 0 0 0 34 87 124 162 157 131 192 251 236 203 269 268 242 266 235 43 64 74 73 109 61
11 0 0 0 0 0 2 0 1 2 1 0 98 79 114 146 167 231 286 285 261 293 244 217 245 264 196 147 37 25 13 4
8 0 0 0 0 0 1 6 0 0 0 1 1 36 83 106 142 246 279 208 119 54 156 296 306 238 210 190 102 13 0 0
1 2 0 0 0 0 1 15 0 6 0 8 3 41 37 41 77 197 135 89 70 50 181 382 414 312 235 178 127 59 55 0
0 2 5 0 0 0 0 26 14 0 2 7 0 0 16 0 0 84 89 49 75 198 162 141 186 235 272 320 254 203 110 10

GFSFLT2_con_mucape_063.txt.gz
CAPE
1575 1624 602 285 149 28 346 1049 1138 1236 1250 1191 1092 854 713 773 672 356 190 131 117 51 5 0 0 0 0 0 0 15 5 4
1175 922 384 373 286 176 69 197 848 1035 1096 991 835 817 957 847 453 305 254 165 100 30 2 0 0 0 0 0 0 0 4 1
1070 471 305 157 158 42 85 129 264 703 944 762 800 582 702 545 270 245 161 70 47 7 0 0 0 0 0 0 0 7 9 3
783 568 445 262 152 121 40 35 276 666 1112 897 427 746 813 316 307 180 99 35 0 0 0 0 0 0 0 0 7 19 17 6
569 496 541 258 98 131 169 62 208 851 687 693 474 751 509 382 585 219 109 0 0 0 0 0 0 0 0 5 6 21 17 6
238 193 169 139 206 32 23 55 76 165 242 190 162 303 251 294 335 180 12 0 0 0 0 16 0 0 3 0 11 25 18 4
86 168 111 122 138 115 97 34 12 31 59 57 91 167 282 251 331 266 68 107 32 0 18 3 1 1 1 4 11 28 17 5
43 1 38 30 45 61 99 38 39 25 15 32 51 169 203 261 298 278 206 209 132 40 50 12 2 1 0 2 5 10 21 13
1 1 47 18 1 2 10 8 21 15 2 14 52 162 238 309 334 397 309 264 241 147 39 17 2 0 0 0 1 6 10 24
0 0 14 28 1 1 19 44 23 8 25 52 10 170 206 271 237 232 194 239 160 82 20 14 7 0 0 0 0 1 2 6
15 0 0 1 0 0 3 3 13 8 12 56 95 195 180 217 180 220 218 139 169 117 104 69 32 2 0 0 0 0 0 0
10 12 0 5 2 3 1 0 5 4 11 84 148 108 140 162 167 207 90 73 55 101 108 47 24 0 0 0 0 0 0 0
6 6 0 10 26 0 1 0 0 0 26 57 140 68 144 183 192 261 264 128 97 213 78 54 0 0 0 0 0 0 0 0
17 2 7 19 20 25 3 13 0 1 11 58 107 137 208 258 270 266 269 247 288 237 240 81 24 6 0 0 0 0 0 0
11 8 7 45 7 14 4 3 1 1 0 0 50 85 172 224 309 280 255 340 297 327 363 294 155 60 51 90 85 54 89 7
35 30 1 0 0 0 0 0 0 0 0 0 2 25 155 154 138 153 295 250 270 327 302 293 309 212 99 40 213 204 206 98
7 22 14 0 0 3 1 19 1 13 3 2 0 1 75 75 112 93 158 331 279 394 390 383 351 260 325 221 122 170 249 165
10 9 19 13 0 0 0 0 0 0 0 0 0 1 44 125 115 101 96 180 232 287 312 394 342 327 315 358 304 172 105 71
8 5 5 11 5 0 0 0 1 3 2 0 1 0 16 112 132 157 170 170 131 183 323 359 400 336 442 422 283 282 233 138
16 0 4 5 0 0 0 0 0 0 4 4 3 1 21 70 164 148 156 115 81 170 187 183 197 295 380 425 336 224 291 259

GFSFLT2_con_mucape_066.txt.gz
CAPE
1721 1866 1187 717 680 573 191 125 72 828 1264 1226 1088 775 644 684 619 461 378 228 127 39 0 0 0 0 0 0 0 17 0 0
1108 1231 1032 696 437 214 199 60 61 162 847 765 602 627 798 609 350 318 293 184 79 4 0 0 0 0 0 0 0 11 0 0
1134 928 549 442 319 131 47 9 0 3 664 464 449 521 557 306 143 193 197 67 53 16 0 0 0 0 0 0 6 0 0 0
1147 625 312 144 106 118 142 44 2 4 367 322 367 485 398 277 153 111 78 7 4 10 0 0 0 0 0 0 6 10 0 0
697 404 331 198 178 216 108 1 12 195 304 259 405 425 249 199 49 19 0 0 0 0 0 0 0 0 0 0 19 6 0 0
337 250 216 164 111 135 49 35 2 152 201 196 275 233 126 161 0 0 0 0 0 0 0 0 0 0 0 1 16 7 0 0
146 61 40 37 85 69 37 2 22 52 129 117 130 117 126 96 0 0 0 0 0 0 0 0 0 0 1 0 22 11 0 0
49 52 9 19 41 41 29 2 49 69 26 50 40 74 134 129 21 0 2 0 0 0 0 0 0 1 0 0 32 6 0 0
3 14 11 5 28 23 20 9 0 23 11 6 25 33 118 114 105 29 21 0 13 0 16 0 1 0 0 5 10 29 2 0
0 1 0 0 0 3 1 9 3 22 14 3 23 26 80 105 89 110 97 33 92 20 8 0 3 0 0 0 0 7 19 2
8 0 3 0 0 1 0 16 48 26 8 7 4 12 52 75 68 106 135 95 117 49 25 3 3 3 0 0 3 4 5 3
1 26 5 4 1 0 0 0 1 7 19 8 3 4 65 69 49 82 77 27 98 54 63 67 10 6 0 0 16 2 0 0
160 6 9 0 0 0 2 4 0 15 1 1 0 12 35 48 56 72 77 72 67 45 77 22 18 7 15 7 1 0 0 0
9 6 1 0 3 25 1 4 0 1 4 3 3 9 0 29 37 85 113 105 71 62 18 7 1 2 0 0 0 0 0 0
3 2 13 1 16 16 0 0 0 3 2 0 0 0 6 16 89 93 88 177 140 118 148 42 36 8 1 0 0 0 0 0
1 5 5 9 19 1 13 0 0 0 0 2 1 0 3 16 80 84 98 151 176 165 161 166 126 22 5 0 29 114 53 1
0 1 2 0 9 0 0 0 0 4 3 5 5 0 16 44 97 140 193 119 146 125 126 151 179 106 54 86 62 69 83 57
5 1 5 2 0 0 0 0 0 0 0 1 1 2 1 22 61 75 82 120 114 93 59 62 142 105 102 143 160 71 82 81
2 6 11 13 3 0 0 0 4 0 0 8 0 0 2 0 27 46 28 33 109 91 59 57 60 73 83 73 123 126 115 94
20 0 4 7 0 3 0 0 0 0 3 4 6 1 2 2 2 3 26 30 46 81 52 24 2 0 52 84 89 109 112 129

GFSFLT2_con_mucape_069.txt.gz
CAPE
1440 1312 1109 1036 970 880 519 378 311 288 587 479 761 898 866 867 730 592 520 321 161 72 24 3 0 0 0 0 0 0 0 0
1014 1272 1138 771 617 528 332 167 168 17 30 330 511 679 636 657 557 490 329 183 68 54 3 0 0 0 0 0 0 0 0 0
663 951 984 956 657 323 217 168 140 29 9 5 359 421 340 312 253 285 181 63 53 38 0 0 0 0 0 0 0 0 0 0
759 596 370 404 291 187 86 36 42 3 0 23 163 251 115 156 158 139 75 31 15 0 0 0 0 0 0 0 0 0 0 0
681 371 191 137 83 50 11 18 8 0 0 6 199 138 80 60 27 19 1 3 0 0 0 0 0 0 0 0 0 0 0 0
356 270 96 49 50 10 0 0 1 0 0 39 190 104 63 4 2 1 0 0 0 0 0 0 0 0 0 1 0 0 0 0
167 45 161 164 0 0 4 1 2 2 17 57 133 85 23 0 0 0 0 0 0 0 0 0 0 0 0 0 0 0 0 0
42 13 132 0 0 0 0 0 1 31 79 92 91 90 28 0 0 0 0 0 0 0 0 0 0 0 0 8 7 0 0 0
7 11 2 3 0 0 6 1 12 39 67 73 56 64 44 0 0 0 0 0 0 0 0 0 0 0 0 5 4 2 0 0
51 32 7 0 1 2 0 0 0 44 57 37 55 56 38 3 0 0 0 0 0 0 0 0 0 0 4 7 8 2 0 0
14 36 0 0 0 5 0 0 9 18 7 2 18 29 26 15 2 0 14 0 0 0 0 0 0 0 0 0 4 0 0 0
0 15 11 0 0 1 6 0 4 40 22 20 12 25 16 17 42 32 77 7 18 4 3 9 0 0 0 0 0 0 0 0
3 6 3 1 0 0 0 10 0 17 31 9 3 3 3 32 32 38 71 60 59 66 41 24 0 0 0 0 0 0 0 0
1 13 12 8 0 0 3 5 0 0 5 10 4 11 3 19 27 36 34 50 59 49 36 20 10 9 3 5 0 4 3 0
0 1 8 8 1 0 1 1 0 0 0 13 4 8 8 14 12 6 9 18 9 1 47 9 7 6 8 16 0 0 4 0
0 0 4 4 5 3 0 0 0 0 4 10 14 5 9 28 2 3 15 3 3 61 63 24 15 5 1 5 9 16 0 0
14 0 4 3 1 5 0 0 0 0 2 11 15 2 6 4 15 19 4 29 54 57 72 47 25 0 0 0 0 11 57 33
6 5 0 2 11 2 1 0 0 0 0 0 4 10 5 1 3 40 44 32 102 76 70 66 77 68 43 20 9 5 7 47
0 0 0 1 6 0 2 0 0 0 0 0 2 0 4 16 6 30 71 56 50 102 83 74 62 61 67 76 82 69 63 55
0 0 0 0 0 2 2 0 0 0 0 0 7 13 0 8 7 23 24 39 43 69 72 62 44 44 38 22 39 43 63 74

GFSFLT2_con_mucape_072.txt.gz
CAPE
1265 1235 1494 1709 1723 1348 1067 808 288 353 316 643 343 677 767 1098 1149 1046 729 577 507 278 94 21 11 0 0 0 0 0 0 0
1267 1174 1058 1069 1004 1041 856 516 285 193 156 65 66 280 502 799 871 727 534 412 304 181 53 18 3 0 0 0 0 0 0 0
780 1094 843 1058 771 698 614 360 303 205 125 32 29 195 319 508 368 410 354 185 120 77 19 6 0 0 0 0 0 0 0 0
487 743 811 642 1225 546 322 139 154 79 12 0 0 1 208 231 261 225 172 88 64 37 1 0 0 0 0 0 0 0 0 0
595 550 421 598 434 583 483 126 95 30 16 1 1 0 126 170 124 45 42 65 23 0 0 0 0 0 0 0 0 0 0 0
655 452 195 97 67 71 49 0 0 8 9 2 0 25 115 64 24 1 4 1 0 0 0 0 0 0 0 0 0 0 0 0
491 369 212 94 36 0 0 0 0 2 0 0 38 69 33 11 0 0 0 0 0 0 0 0 0 0 0 0 0 0 0 0
263 240 282 68 49 0 2 3 3 1 0 0 10 31 0 1 0 0 0 0 0 0 0 0 0 0 0 0 0 0 0 0
164 199 59 37 0 0 1 0 0 1 0 3 75 37 9 0 0 0 0 0 0 0 0 0 0 0 0 0 0 0 0 0
80 52 0 0 0 0 0 0 4 12 9 2 5 52 7 0 0 0 0 0 0 0 0 0 0 0 0 0 0 0 0 0
64 27 1 2 5 1 2 5 12 34 18 46 14 11 5 0 0 0 0 0 0 0 0 0 0 0 0 0 0 0 0 0
1 2 2 0 0 7 0 4 25 17 27 38 56 38 45 0 0 0 0 0 0 0 0 0 0 0 0 0 0 0 0 0
0 1 0 0 0 0 2 0 0 11 24 24 16 28 45 13 0 0 0 0 0 0 0 0 0 0 1 0 3 2 0 0
0 0 2 1 3 0 7 0 9 13 20 33 52 58 45 38 3 6 14 0 0 10 4 0 1 0 0 0 3 15 43 22
0 0 0 3 5 0 0 24 2 0 21 36 8 27 26 9 4 9 67 37 21 45 27 16 15 4 2 2 2 3 16 36
0 0 0 4 4 0 0 0 1 1 27 30 20 10 15 7 4 13 64 70 51 58 66 49 19 0 4 10 1 4 0 2
0 0 0 0 4 0 0 0 0 9 0 17 22 1 7 25 10 41 44 53 63 52 63 47 26 25 2 3 7 0 0 0
0 0 0 0 1 0 0 0 0 0 2 0 3 6 17 9 23 19 37 31 49 42 30 14 20 59 41 23 2 0 5 45
0 0 0 0 0 4 0 0 0 0 0 0 0 1 2 1 3 3 18 13 3 5 0 0 8 55 62 19 19 0 0 5
0 0 0 0 0 2 0 0 0 0 0 0 0 0 0 7 8 6 7 20 1 6 22 11 48 63 72 65 59 60 63 55

GFSFLT2_con_mucape_075.txt.gz
CAPE
1364 1680 1956 1769 1792 1660 1235 1067 989 917 665 359 380 637 794 1054 1053 918 912 853 641 413 305 42 86 11 0 0 0 0 0 0
1354 1303 1480 1517 1856 1540 1187 889 527 308 109 24 4 270 367 381 586 748 599 725 426 268 58 42 60 2 0 0 0 0 0 0
1130 1085 1057 1062 1231 1274 1119 773 468 182 178 132 71 149 200 222 472 566 407 366 254 122 12 4 6 0 0 0 0 0 0 0
698 865 945 721 426 1039 958 764 463 332 96 58 41 118 116 143 246 322 253 220 153 47 3 4 0 0 0 0 0 0 0 0
500 462 680 485 307 595 698 602 159 112 84 57 53 27 139 245 126 194 138 135 4 0 0 0 0 0 0 0 0 0 0 0
419 431 427 314 706 409 424 334 214 66 95 53 30 55 42 99 95 94 85 51 8 0 0 0 0 0 0 0 0 0 0 0
443 338 246 141 171 226 229 195 101 60 42 39 30 2 55 141 65 66 22 30 3 0 0 0 0 0 0 0 0 0 0 0
485 157 119 76 7 11 0 0 0 0 11 35 44 21 133 99 40 3 2 13 5 0 0 0 0 0 0 0 0 0 0 0
224 166 126 109 29 1 0 0 0 0 2 1 12 26 147 72 41 4 0 0 0 0 0 0 0 0 0 0 0 0 0 0
117 89 143 51 1 0 1 2 4 7 13 10 4 53 83 52 75 6 0 0 0 0 0 0 0 0 0 0 0 0 0 0
83 98 53 8 0 0 3 0 2 22 8 0 0 11 11 28 85 1 0 0 0 0 0 0 0 0 0 0 0 0 0 0
51 14 5 2 0 0 1 8 6 23 2 7 5 62 56 62 73 0 0 0 0 0 0 0 0 0 0 0 0 0 0 0
30 1 0 3 0 4 9 0 3 28 10 0 12 49 91 81 27 0 0 0 0 0 0 0 0 0 0 0 4 0 0 6
19 0 0 0 0 0 2 6 87 61 55 40 48 50 19 21 4 0 0 0 0 0 0 0 0 0 0 1 0 3 7 8
49 0 0 0 0 2 1 2 53 49 63 60 65 14 14 37 6 0 0 0 0 0 0 0 0 1 0 0 6 5 21 15
78 3 0 0 0 1 0 0 0 43 42 34 56 78 30 27 33 7 18 1 6 4 14 12 5 11 0 0 17 11 31 40
94 22 0 0 0 0 0 0 0 0 4 0 48 45 45 43 55 2 24 2 7 50 82 52 57 47 10 11 16 4 14 15
92 31 2 0 0 0 0 1 0 0 3 4 10 2 20 34 22 9 11 5 38 25 97 93 104 61 45 37 19 10 10 7
94 30 1 0 0 0 0 0 0 0 1 0 3 21 9 35 19 11 9 10 15 44 59 87 81 51 26 28 38 37 28 46
100 35 0 0 0 0 0 0 0 0 0 0 0 0 17 5 6 14 10 8 7 40 47 55 31 33 13 9 26 53 34 36

GFSFLT2_con_mucape_078.txt.gz
CAPE
1529 1996 1646 1748 1783 1640 1262 1201 1281 1378 1127 630 445 275 546 760 1005 1309 1221 1037 981 787 531 294 174 59 17 4 0 0 0 0
1325 1651 2426 1674 2370 1701 1399 1098 793 412 237 221 26 4 114 318 539 687 775 841 776 555 307 218 90 33 11 0 0 0 0 0
1415 1430 1892 2053 2079 1848 1325 992 728 478 195 117 39 9 144 142 301 317 600 369 492 170 152 133 22 0 0 0 0 0 0 0
1264 1290 1301 1339 1277 1300 1291 917 699 532 255 61 62 47 19 64 102 222 220 194 175 92 120 29 1 0 0 0 0 0 0 0
1104 1191 970 848 933 518 666 624 656 788 143 69 46 52 49 84 74 120 119 127 83 31 1 0 0 0 0 0 0 0 0 0
532 840 1143 622 489 302 426 718 620 444 340 176 73 52 72 85 85 76 70 70 12 4 1 0 0 0 0 0 0 0 0 0
535 870 552 298 230 248 398 355 544 151 151 68 55 79 73 95 86 86 48 55 3 0 0 0 0 0 0 0 0 0 0 0
499 602 271 538 101 108 285 401 301 330 43 16 41 38 55 69 81 87 47 54 0 0 4 1 0 0 0 0 0 0 0 0
680 520 258 65 79 39 77 174 138 88 238 45 32 28 44 86 78 74 62 50 0 2 5 0 0 0 0 0 0 0 0 0
605 416 27 38 39 2 15 0 0 0 2 7 46 73 100 157 99 42 47 46 0 0 0 0 0 0 0 0 0 0 0 0
468 337 192 41 40 6 53 26 0 1 0 1 1 22 35 100 63 26 69 47 31 0 0 0 0 0 0 0 0 0 0 0
94 309 76 58 0 7 0 13 2 4 15 0 14 9 8 39 53 35 69 22 25 0 0 0 3 1 2 0 0 0 0 0
81 122 71 3 1 3 0 8 6 4 8 32 4 7 1 46 54 70 67 17 20 0 0 0 0 0 0 2 4 0 0 0
73 62 53 18 5 5 0 8 1 6 31 19 14 16 20 7 5 41 104 23 9 0 0 0 0 2 8 5 2 5 0 0
77 78 57 0 2 28 4 4 6 42 39 26 7 19 8 6 65 65 50 0 0 0 0 0 0 6 10 1 1 1 0 0
86 102 46 0 0 1 1 1 6 52 116 29 7 25 8 8 4 1 16 0 0 0 2 0 1 0 2 9 8 15 19 4
96 113 72 1 1 0 0 0 0 23 63 59 74 13 3 4 0 0 6 0 0 6 9 5 15 27 29 44 54 43 44 19
110 127 82 3 5 2 0 0 1 0 7 36 26 27 46 29 23 4 0 0 10 26 19 31 44 47 55 92 81 62 46 49
114 132 89 4 2 6 0 0 0 0 0 0 2 8 29 19 17 10 2 0 5 2 0 15 66 87 85 77 82 65 72 53
128 147 93 3 2 4 0 0 0 0 0 0 2 1 9 9 14 11 26 0 3 0 1 0 52 50 63 49 48 60 39 36

GFSFLT2_con_mucape_081.txt.gz
CAPE
1980 2191 1812 1546 1503 1649 1624 1362 1411 1444 1633 1629 793 243 408 483 341 624 1025 1137 997 1007 799 624 508 237 125 74 42 19 94 61
1659 1625 2513 2157 2165 1493 1525 1404 1053 839 921 453 309 200 182 132 292 438 610 1147 871 854 611 450 247 170 81 41 14 0 29 9
1655 1866 2083 1966 1847 2236 1515 1266 1050 652 479 228 201 144 89 96 213 267 301 573 546 452 399 276 195 86 32 21 1 0 0 0
1353 1625 1828 2325 1939 1820 1514 1254 904 621 557 234 142 104 161 68 75 144 214 281 287 266 263 209 164 110 67 26 2 0 0 0
1315 1425 1771 2007 1825 1690 1579 1252 680 594 474 355 120 83 74 25 78 165 201 192 285 297 220 155 132 74 5 1 0 0 0 2
1084 1084 1236 1279 1230 1328 1150 839 483 436 417 290 167 107 115 182 248 194 96 70 144 320 224 93 22 1 0 0 0 0 0 0
1188 1174 1055 674 589 802 519 270 359 268 375 273 97 75 208 210 218 223 70 50 70 204 80 16 0 0 0 0 0 0 0 2
948 980 568 447 364 319 225 296 265 252 381 241 266 78 237 261 252 259 122 39 60 126 58 0 0 0 0 0 0 0 0 0
742 593 714 316 345 180 141 302 208 250 301 71 43 130 52 158 225 206 156 33 47 66 76 63 0 0 0 0 0 0 0 0
650 622 475 173 86 59 85 178 302 282 196 204 386 39 45 184 171 141 56 47 44 101 57 45 3 0 0 1 0 0 0 12
647 642 498 46 83 76 2 20 86 115 203 159 169 99 60 98 120 106 50 58 22 63 43 28 6 5 0 0 0 1 5 9
628 676 535 12 51 0 2 75 21 0 3 0 2 46 56 93 50 57 52 44 33 44 23 19 17 12 0 0 4 4 9 11
508 628 166 62 89 5 0 0 0 10 24 26 8 0 3 62 29 20 26 35 31 45 9 4 6 16 0 0 2 0 2 1
480 549 113 38 167 0 13 4 2 21 28 31 60 13 3 14 7 14 41 34 37 41 0 1 0 0 2 3 0 2 0 0
542 358 101 46 4 11 2 20 4 11 15 67 18 10 5 11 21 19 31 26 26 14 2 0 0 1 0 18 8 33 7 0
480 219 174 185 14 8 2 6 5 14 15 21 2 4 7 10 29 41 5 37 37 0 0 0 0 0 2 14 53 27 82 32
365 161 101 185 28 2 3 8 10 6 64 8 4 25 8 4 17 39 34 50 60 0 3 0 0 18 11 27 27 16 52 76
237 130 58 93 29 2 0 26 4 4 22 20 37 15 9 8 6 28 39 26 19 0 0 0 0 12 15 45 56 62 42 61
152 114 62 97 28 4 2 17 10 7 21 36 42 27 30 10 4 4 4 1 2 0 0 1 13 37 66 55 70 79 79 69
119 115 69 95 14 3 3 1 2 2 1 0 0 16 20 32 5 2 3 0 0 1 3 5 39 33 57 106 81 73 62 33

GFSFLT2_con_mucape_087.txt.gz
CAPE
2441 2077 1652 1190 1493 1569 1779 1868 1958 2007 1778 1654 1496 1222 1043 1017 873 940 871 692 622 861 951 946 931 645 487 462 437 460 667 684
2563 2465 2247 2053 1840 1426 1402 1738 1830 1853 1747 1429 1162 1017 912 724 707 746 614 428 624 754 639 728 622 428 371 402 398 315 412 429
2590 2387 2390 2282 2110 1845 1444 1404 1494 1580 1451 1244 1123 1132 1153 653 514 421 353 298 513 741 527 369 352 351 380 376 257 520 349 166
2781 2574 2485 2545 2034 2502 2024 1845 1781 1758 1448 1507 1244 1235 1140 861 440 251 238 251 401 524 368 280 282 569 455 257 464 316 154 46
2579 2608 2621 2515 2301 2621 2249 2118 2396 2183 2153 1830 1606 1581 1482 972 474 315 370 308 283 389 274 423 525 661 739 612 316 249 79 42
2420 2571 2256 2446 2117 1978 1946 2445 2486 2130 1837 1790 1823 1654 1380 1027 754 375 354 716 473 271 268 469 669 460 455 330 168 191 155 87
2390 2252 2400 2337 2157 2032 1971 2160 2015 1831 1892 1659 1858 1547 1243 897 506 519 569 739 181 46 108 336 578 426 351 270 78 115 51 74
2406 2286 2297 2240 2254 1858 1911 1765 1620 1522 1436 1485 1450 1463 1211 975 755 629 758 668 299 45 116 158 574 423 275 234 78 56 32 31
2296 2453 2301 2284 2158 2142 1499 1654 1184 1194 1202 1425 1202 1052 841 952 805 887 378 402 438 77 102 109 285 229 179 123 51 51 22 10
1888 2292 2222 2302 2153 2007 1800 1157 1290 1127 1271 1151 1026 729 693 698 704 656 596 314 261 61 103 80 103 167 159 64 66 35 21 12
1494 2459 2137 2249 2113 1912 1575 1328 1004 1025 1119 920 692 650 521 630 616 509 346 299 237 147 65 67 128 125 121 104 52 19 17 9
1550 2490 2110 2172 2067 1533 1181 815 716 611 495 620 681 490 313 313 176 196 130 261 265 182 86 85 139 142 81 60 61 48 33 19
1706 2330 2069 2358 1703 1067 911 637 610 347 280 320 350 383 268 215 194 157 60 192 140 151 93 64 68 85 126 87 83 56 42 21
1809 2182 2066 2005 1327 1263 946 771 465 588 507 266 164 120 211 294 172 73 73 75 51 85 70 58 84 152 121 41 60 34 59 39
1739 2071 2047 1843 1404 1230 868 571 353 377 221 184 691 502 431 305 181 103 64 85 45 38 21 37 41 94 140 42 24 22 41 41
1619 1921 1875 1758 1466 1121 782 495 292 284 207 263 391 276 223 195 172 101 76 35 55 41 15 45 69 143 110 83 41 25 32 66
1645 1718 1642 1607 1336 1040 772 472 242 164 197 219 118 27 4 23 16 21 21 35 8 35 32 38 50 170 99 162 131 143 85 79
1810 1541 1607 1199 1275 1022 817 486 175 128 237 281 14 11 0 0 0 0 7 20 8 14 41 17 71 123 124 179 156 116 146 125
1716 1416 1504 1038 1149 1057 710 401 167 87 233 109 7 0 0 2 0 2 14 13 11 26 25 44 113 102 157 127 204 202 165 158
1235 897 955 732 1035 1008 594 215 114 62 216 29 2 0 0 5 6 5 4 12 34 42 11 35 75 128 163 155 132 144 193 109